Weather History for KHKY - November, 2010

Change the Weather History Date:

Wednesday, November 3, 2010

  Actual Average Record
Temperature  
Mean Temperature 47 °F -  
Max Temperature 55 °F 67 °F 83 °F (1974)
Min Temperature 39 °F 44 °F 23 °F (1954)
Degree Days  
Heating Degree Days 18    
Moisture  
Dew Point 40 °F    
Average Humidity 73    
Maximum Humidity 100    
Minimum Humidity 54    
Precipitation  
Precipitation 0.02 in - - ()
Sea Level Pressure  
Sea Level Pressure 30.05 in    
Wind  
Wind Speed 2 mph (NNE)    
Max Wind Speed 5 mph    
Max Gust Speed -    
Visibility 9 miles    
Events Rain    
Averages and records for this station are not official NWS values.
T = Trace of Precipitation, MM = Missing Value Source: NWS Daily Summary

Daily Weather History Graph

Daily Weather History Graph

Search for Another Location

Airport or City:

Trip Planner

Search our weather history database for the weather conditions in past years. The results will help you decide how hot, cold, wet, or windy it might be!

Date:

Astronomy

Nov. 03, 2010 Rise Set
Actual Time 7:49 AM EDT 6:28 PM EDT
Civil Twilight 7:23 AM EDT 6:54 PM EDT
Nautical Twilight 6:52 AM EDT 7:24 PM EDT
Astronomical Twilight 6:22 AM EDT 7:54 PM EDT
Moon 4:51 AM EDT (11/3) 4:34 PM EDT (11/3)
Length of Visible Light 11h 31m
Length of Day
10h 38m
Waning Crescent, 9% of the Moon is Illuminated
Nov 3
Waning Crescent
Nov 6
New
Nov 13
First Quarter
Nov 21
Full
Nov 28
Last Quarter

Hourly Weather History & Observations

Time (EDT) Temp. Windchill Dew Point Humidity Pressure Visibility Wind Dir Wind Speed Gust Speed Precip Events Conditions
12:53 AM 42.1 °F 39.2 °F 35.1 °F 76% 30.25 in 10.0 mi NE 4.6 mph - N/A   Clear
1:53 AM 41.0 °F - 34.0 °F 76% 30.23 in 10.0 mi Calm Calm - N/A   Clear
2:53 AM 39.9 °F 37.8 °F 35.1 °F 83% 30.22 in 10.0 mi North 3.5 mph - N/A   Clear
3:53 AM 41.0 °F - 35.1 °F 79% 30.21 in 10.0 mi Calm Calm - N/A   Clear
4:53 AM 41.0 °F 39.0 °F 35.1 °F 79% 30.19 in 10.0 mi NNW 3.5 mph - N/A   Clear
5:53 AM 42.1 °F 40.2 °F 36.0 °F 79% 30.18 in 10.0 mi NNW 3.5 mph - N/A   Clear
6:53 AM 42.1 °F 40.2 °F 36.0 °F 79% 30.18 in 10.0 mi NW 3.5 mph - N/A   Scattered Clouds
7:53 AM 42.1 °F - 36.0 °F 79% 30.17 in 10.0 mi Calm Calm - N/A   Mostly Cloudy
8:53 AM 43.0 °F 41.3 °F 37.0 °F 80% 30.17 in 10.0 mi NNW 3.5 mph - N/A   Clear
9:53 AM 45.0 °F 43.5 °F 37.0 °F 74% 30.17 in 10.0 mi North 3.5 mph - N/A   Clear
10:53 AM 46.0 °F - 37.0 °F 71% 30.15 in 10.0 mi Calm Calm - N/A   Clear
11:53 AM 48.9 °F - 39.0 °F 69% 30.13 in 10.0 mi ENE 3.5 mph - N/A   Partly Cloudy
12:53 PM 50.0 °F - 39.0 °F 66% 30.09 in 10.0 mi Variable 3.5 mph - N/A   Clear
1:53 PM 51.1 °F - 39.0 °F 63% 30.05 in 10.0 mi Variable 3.5 mph - N/A   Partly Cloudy
2:53 PM 54.0 °F - 39.0 °F 57% 30.01 in 10.0 mi Calm Calm - N/A   Partly Cloudy
3:37 PM 55.4 °F - 39.2 °F 54% 30.02 in 10.0 mi Calm Calm - N/A   Mostly Cloudy
3:53 PM 55.0 °F - 39.9 °F 57% 29.98 in 10.0 mi Calm Calm - N/A   Overcast
4:23 PM 55.4 °F - 39.2 °F 54% 30.00 in 10.0 mi East 3.5 mph - N/A   Scattered Clouds
4:53 PM 55.0 °F - 39.9 °F 57% 29.95 in 10.0 mi ESE 4.6 mph - N/A   Scattered Clouds
5:53 PM 55.0 °F - 39.9 °F 57% 29.94 in 10.0 mi Calm Calm - N/A   Overcast
6:53 PM 53.1 °F - 39.9 °F 61% 29.93 in 10.0 mi ESE 3.5 mph - N/A   Overcast
7:16 PM 53.6 °F - 41.0 °F 62% 29.95 in 10.0 mi Calm Calm - N/A   Overcast
7:53 PM 53.1 °F - 41.0 °F 64% 29.92 in 10.0 mi Calm Calm - N/A   Overcast
8:53 PM 53.1 °F - 39.9 °F 61% 29.91 in 10.0 mi Calm Calm - N/A   Overcast
9:53 PM 50.0 °F - 45.0 °F 83% 29.88 in 10.0 mi Calm Calm - 0.00 in   Overcast
10:53 PM 48.9 °F - 46.9 °F 93% 29.87 in 4.0 mi Calm Calm - 0.00 in Rain Light Rain
11:22 PM 48.2 °F - 48.2 °F 100% 29.87 in 3.0 mi Calm Calm - 0.00 in Rain Light Rain
11:35 PM 48.2 °F - 48.2 °F 100% 29.87 in 2.5 mi Calm Calm - 0.01 in Rain Light Rain
11:53 PM 48.0 °F - 48.0 °F 100% 29.83 in 2.5 mi Calm Calm - 0.02 in Rain Light Rain